Location: Axtheid
(49.6213°N, 11.8205°E)
Time: 20:32:15
(UTC+00:00)

CZ-4C R/B - Pass Details

Date: 24 January 2021
Orbit: 617 x 1385 km, 63.4° (Epoch: 01 March)

Event Time Altitude Azimuth Distance (km) Brightness Sun altitude
Rises 17:34:57 0° 281° (W) 3,290 6.6 -16.0°
Reaches altitude 10° 17:37:38 10° 295° (WNW) 2,476 5.5 -16.4°
Maximum altitude 17:42:24 25° 350° (N) 1,813 3.9 -17.2°
Enters shadow 17:46:33 15° 36° (NE) 2,531 4.3 -17.8°
